Regional Weather Roundup
Issued by NWS

Home | Current Version | Previous Version | Graphics & Text | Print | Product List | Glossary On
Versions: 1 2 3 4 5 6 7 8 9 10 11 12 13 14 15 16 17 18 19 20 21 22 23 24 25 26 27 28 29 30 31 32 33 34 35 36 37 38 39 40 41 42 43 44 45 46 47 48 49 50
000
ASUS43 KOAX 011302
RWRNE

WEATHER ROUNDUP FOR NEBRASKA
NATIONAL WEATHER SERVICE OMAHA NE
800 AM CDT SUN MAY 01 2016

NOTES: SATELLITE DATA IS BEING USED TO AUGMENT CLOUD COVER ABOVE
       12000 FEET.
       "FAIR" INDICATES FEW OR NO CLOUDS BELOW 12,000 FEET WITH NO
       SIGNIFICANT WEATHER AND/OR OBSTRUCTIONS TO VISIBILITY.

  * THESE STATIONS DO NOT REPORT WEATHER SUCH AS RAIN...SNOW OR FOG.

NEZ001>004-019>022-054>056-011400-
NEBRASKA PANHANDLE

CITY           SKY/WX    TMP DP  RH WIND       PRES   REMARKS
SCOTTSBLUFF    MOSUNNY   39  33  79 NW9       30.29R WCI  33
ALLIANCE       CLOUDY    35  31  85 N10       30.24R WCI  27
CHADRON        SUNNY     34  29  82 N6        30.29R WCI  29
KIMBALL        CLOUDY    34  32  94 N10       30.26R WCI  26
SIDNEY         CLOUDY    34  32  92 NW15      30.25R WCI  24
$$

NEZ057>060-069>072-079>082-011400-
SOUTHWEST NEBRASKA

CITY           SKY/WX    TMP DP  RH WIND       PRES   REMARKS
NORTH PLATTE   CLOUDY    37  35  92 N9        30.17R WCI  30
IMPERIAL       CLOUDY    37  34  89 N17G26    30.19R WCI  27
LEXINGTON      LGT RAIN  41  38  89 N15G21    30.12R
MCCOOK         CLOUDY    38  35  89 N20       30.14R WCI  28
$$

NEZ005>010-023>029-035>040-094-011400-
NORTH CENTRAL NEBRASKA

CITY           SKY/WX    TMP DP  RH WIND       PRES   REMARKS
VALENTINE      PTSUNNY   38  33  82 N12       30.22R WCI  30
AINSWORTH      SUNNY     38  37  94 N15       30.19R WCI  29
BROKEN BOW     CLOUDY    41  38  89 N21       30.12R
ORD            LGT RAIN  41  39  93 N22G29    30.11R
$$

NEZ041-046>049-061>064-073>077-083>087-011400-
SOUTH CENTRAL NEBRASKA

CITY           SKY/WX    TMP DP  RH WIND       PRES   REMARKS
GRAND ISLAND   CLOUDY    41  38  89 N17G24    30.08R FOG
AURORA         CLOUDY    41  41  99 N20       30.05R FOG
HASTINGS       CLOUDY    41  38  89 N17G29    30.05R
KEARNEY *      CLOUDY    39  37  93 N14       30.10R WCI  31
YORK           LGT RAIN  41  41 100 N20G29    30.03R
$$

NEZ011>018-030>034-042>045-011400-
NORTHEAST NEBRASKA

CITY           SKY/WX    TMP DP  RH WIND       PRES   REMARKS
NORFOLK        LGT RAIN  42  39  89 NE14      30.08R
ALBION         LGT RAIN  41  40  94 N14G20    30.09R
BLAIR          DRIZZLE   44  42  95 N10       30.00R
COLUMBUS *     CLOUDY    43  34  70 N14       30.06R
FREMONT        LGT RAIN  42  42 100 N9G16     30.03R
TEKAMAH        LGT RAIN  44  42  93 N14       30.04R
$$

NEZ050>053-065>068-078-088>093-011400-
SOUTHEAST NEBRASKA

CITY           SKY/WX    TMP DP  RH WIND       PRES   REMARKS
LINCOLN        CLOUDY    45  43  93 N15       30.01R FOG
OMAHA EPPLEY   LGT RAIN  45  43  93 N7        30.00R FOG
FALLS CITY     CLOUDY    51  48  89 W7        29.94R
$$

NEZ044-045-051>053-067-011400-
OMAHA AREA

CITY           SKY/WX    TMP DP  RH WIND       PRES   REMARKS
OMAHA EPPLEY   LGT RAIN  45  43  93 N7        30.00R FOG
BLAIR          DRIZZLE   44  42  95 N10       30.00R
FREMONT        LGT RAIN  42  42 100 N9G16     30.03R
OFFUTT AFB     LGT RAIN  45  45  98 N10       29.98R
$$




USA.gov is the U.S. government's official web portal to all federal, state and local government web resources and services.